Regional Weather Roundup
Issued by NWS

Home | Current Version | Previous Version | Graphics & Text | Print | Product List | Glossary Off
Versions: 1 2 3 4 5 6 7 8 9 10 11 12 13 14 15 16 17 18 19 20 21 22 23 24 25 26 27 28 29 30 31 32 33 34 35 36 37 38 39 40 41 42 43 44 45 46 47 48 49 50

000
ASUS43 KMKX 291524
RWRWI

WISCONSIN REGIONAL WEATHER ROUNDUP
NATIONAL WEATHER SERVICE MILWAUKEE/SULLIVAN WI
1000 AM CDT TUE JUL 29 2014

NOTE: "FAIR" INDICATES FEW OR NO CLOUDS BELOW 12,000 FEET WITH NO
SIGNIFICANT WEATHER AND/OR OBSTRUCTIONS TO VISIBILITY.

WIZ001-002-006>008-014>016-023>028-291600-
NORTHWEST WISCONSIN

CITY           SKY/WX    TMP DP  RH WIND       PRES   REMARKS
SUPERIOR ARPT  PTSUNNY   65  59  78 SW8       30.06F
ASHLAND        PTSUNNY   65  57  75 SW6       30.06F
HAYWARD        MOSUNNY   67  54  63 W6        30.09F
SIREN          SUNNY     67  58  71 NW7       30.10F
RICE LAKE      NOT AVBL
LADYSMITH      MOSUNNY   69  56  62 NW5       30.10F
EAU CLAIRE     SUNNY     71  57  61 VRB3      30.09S
MENOMONIE      SUNNY     72  57  60 NW8       30.10S
NEW RICHMOND   SUNNY     70  58  66 W6        30.12F
OSCEOLA        SUNNY     69  61  76 NW6       30.14F
$$

WIZ003>005-009-010-017-018-291600-
NORTH CENTRAL WISCONSIN

CITY           SKY/WX    TMP DP  RH WIND       PRES   REMARKS
WOODRUFF       MOSUNNY   67  58  74 N6        30.06S
RHINELANDER    PTSUNNY   63  55  75 VRB3      30.07S
EAGLE RIVER    SUNNY     64  53  68 NW8       30.05S
LAND O LAKES   PTSUNNY   65  55  69 NW7       30.06S
PHILLIPS       MOSUNNY   64  56  73 N5        30.08S
TOMAHAWK       PTSUNNY   64  56  73 NW3       30.07S
MEDFORD        PTSUNNY   63  56  78 NW7       30.08S
MERRILL        PTSUNNY   65  56  74 N9        30.06S
$$

WIZ029-030-035-036-043>047-291600-
CENTRAL WISCONSIN

CITY           SKY/WX    TMP DP  RH WIND       PRES   REMARKS
WAUSAU         MOSUNNY   65  54  67 NW9       30.05S
MOSINEE        PTSUNNY   64  57  77 NW6       30.07S
MARSHFIELD     SUNNY     71  55  56 NW13      30.07F
STEVENS POINT  CLOUDY    64  54  70 NW3       30.06F
WAUPACA        CLOUDY    70  55  58 NW6       30.04F
WAUTOMA        MOSUNNY   69  55  60 NW8       30.06S
WISC RAPIDS    MOSUNNY   70  55  59 NW8       30.07F
CAMP DOUGLAS   SUNNY     69  60  74 NW7       30.08F
$$

WIZ011>013-019>022-031-037>040-048>050-291600-
NORTHEAST WISCONSIN

CITY           SKY/WX    TMP DP  RH WIND       PRES   REMARKS
ANTIGO         CLOUDY    64  56  76 N8        30.05S
STURGEON BAY   PTSUNNY   64  54  68 NW6       30.01S
GREEN BAY      PTSUNNY   70  56  61 N7        30.02F
MANITOWOC      SUNNY     69  55  60 N6        30.01F
APPLETON       CLOUDY    66  54  63 NW8       30.04
CLINTONVILLE   CLOUDY    68  54  60 NW6       30.03S
OSHKOSH        PTSUNNY   69  55  60 NW7       30.04S
$$

WIZ032>034-041-042-053>061-291600-
SOUTHWEST WISCONSIN

CITY           SKY/WX    TMP DP  RH WIND       PRES   REMARKS
LA CROSSE      SUNNY     70  58  65 VRB7      30.10S
SPARTA         SUNNY     69  55  60 W7        30.10S
VIROQUA        FAIR      68  59  72 NW9       30.11S
BOSCOBEL       SUNNY     71  58  63 VRB3      30.09F
PRAIRIE DU CHI SUNNY     69  55  62 CALM      30.10S
PLATTEVILLE    FAIR      69  59  69 NW7       30.10F
$$

WIZ056-057-062-063-064-067-068-291600-
SOUTH CENTRAL WISCONSIN

CITY           SKY/WX    TMP DP  RH WIND       PRES   REMARKS
BARABOO/DELLS  SUNNY     69  54  60 NW6       30.08S
LONE ROCK      SUNNY     73  59  61 W7        30.08F
WATERTOWN      SUNNY     68  56  65 NW8       30.06R
MADISON        MOSUNNY   71  56  58 N8        30.07S
MIDDLETON      FAIR      71  55  58 NW8       30.08S
MONROE         SUNNY     70  55  60 NW7       30.08S
JANESVILLE     SUNNY     72  54  53 NW8       30.06F
$$

WIZ051-052-058>065-066-070>072-291600-
SOUTHEAST WISCONSIN

CITY           SKY/WX    TMP DP  RH WIND       PRES   REMARKS
MILWAUKEE      MOSUNNY   69  55  60 W8        30.03S
WAUKESHA       SUNNY     66  55  68 W12       30.06S
MILWAUKEE/TIMM SUNNY     68  55  64 W7        30.05R
RACINE         MOSUNNY   69  56  62 W9        30.05S
BURLINGTON     SUNNY     67  56  68 NW10      30.05S
KENOSHA        MOSUNNY   69  58  67 NW9       30.04S
FOND DU LAC    SUNNY     68  54  60 N9        30.04F
SHEBOYGAN      SUNNY     68  57  68 VRB5      30.02F
WEST BEND      SUNNY     66  54  63 NW5       30.04S
JUNEAU         SUNNY     67  52  57 N6        30.07S
$$

LSZ147-162-291600-
LAKE SUPERIOR

STATION/POSITION TIME  TEMP    WIND        PRES    WAVE
                       AIR SEA DIR/SP/G            HT/PER
                 (UTC) (F)     (DEG/KT/KT) (MB)    (FT/S)
W MID LAKE BUOY  1450   49 44  230/  6/  6 1017.1F   1
PORT WING        1400   64     230/  5/  7 1018.3R
SAXON HARBOR     1400          190/  4/  8 1017.9S
$$

LMZ867-665-643>646-291600-
LAKE MICHIGAN

STATION/POSITION TIME  TEMP    WIND        PRES    WAVE
                       AIR SEA DIR/SP/G            HT/PER
                 (UTC) (F)     (DEG/KT/KT) (MB)    (FT/S)
N MID LAKE BUOY  1450   56 51  280/  6/  6 1014.7S   1
NORTHPORT PIER   1400   61     320/ 13/ 15 1015.6S
KEWAUNEE LAKESHO 1500   66     310/  6/ 10 1016.6F
SHEBOYGAN LAKESH 1500   66      10/  5/  5 1016.7S
PORT WASHINGTON  1400   67     300/  8/ 11 1016.9
ATWATER BUOY     1500   64     300/  4     1018.1R
MILWAUKEE LAKESH 1500   67     320/  4/ 10   N/A
S MID LAKE BUOY  1450   61 60  300/ 10/ 12 1016.7R   1
KENOSHA   LAKESH 1500   68     290/  7/ 12 1016.9R
$$

TC  - TEMPERATURE IN CELSIUS
VSB - VISIBILITY IN STATUTE MILES
WCI - WIND CHILL INDEX
HX  - HEAT INDEX



USA.gov is the U.S. government's official web portal to all federal, state and local government web resources and services.